Regional Weather Roundup
Issued by NWS Sterling, VA

Home | Current Version | Previous Version | Graphics & Text | Print | Product List | Glossary On
Versions: 1 2 3 4 5 6 7 8 9 10 11 12 13 14 15 16 17 18 19 20 21 22 23 24 25 26 27 28 29 30 31 32 33 34 35 36 37 38 39 40 41 42 43 44 45 46 47 48 49 50
000
ASUS41 KLWX 040310
RWRLWX

REGIONAL WEATHER ROUNDUP
NATIONAL WEATHER SERVICE BALTIMORE MD/WASHINGTON DC
1100 PM EDT MON AUG 03 2015

Note: "FAIR" indicates few or no clouds below 12,000 feet
with no significant weather and/or obstructions to visibility.
 TC=TEMPERATURE CELSIUS

 * =Non NWS site. Station does not report precipitation (e.g. rain,
    snow, etc.), thunder, or fog.

DCZ001-MDZ009-015-VAZ040>042-051-053>054-040400-
WASHINGTON METRO

CITY           SKY/WX    TMP DP  RH WIND       PRES   REMARKS
WASHINGTON NAT PTCLDY    84  69  60 S10       29.84S
DULLES         PTCLDY    78  63  59 S8        29.83F
ANDREWS AFB    CLEAR     78  67  67 S10       29.84S
FT BELVOIR     CLEAR     73  69  89 SE3       29.83F
COLLEGE PARK*  CLEAR     82  66  57 S3        29.83F
LEESBURG*      PTCLDY    79  68  69 S10       29.84F
MANASSAS*      CLEAR     73  66  78 CALM      29.84S
GAITHERSBURG*  PTCLDY    81  61  50 S5        29.87F

$$

MDZ006>007-011-014-040400-
BALTIMORE METRO

CITY           SKY/WX    TMP DP  RH WIND       PRES   REMARKS
BWI AIRPORT    PTCLDY    80  66  62 S7        29.82F
MD SCIENCE CTR   N/A     83  65  54 MISG      29.82F
MARTIN STATE   CLEAR     81  72  74 S5        29.83F
ANNAPOLIS      CLEAR     81  68  64 S5        29.83S
FORT MEADE*    CLEAR     70  68  94 S3        29.85F

$$

MDZ012-015-019>023-040400-
MARYLAND EASTERN SHORE

CITY           SKY/WX    TMP DP  RH WIND       PRES   REMARKS
OCEAN CITY     CLEAR     80  75  84 SW17G24   29.88S
SALISBURY      CLEAR     76  74  93 S7        29.87S
BAY BRIDGE AP*   N/A     81  70  69 S7        29.84S
CAMBRIDGE*     CLEAR     79  72  78 CALM      29.85F
EASTON*        CLEAR     82  75  79 SW8       29.88F

$$

MDZ017>025-040400-
SOUTHERN MARYLAND

CITY           SKY/WX    TMP DP  RH WIND       PRES   REMARKS
PATUXENT RIVER PTCLDY    81  71  71 SW13      29.85F
ST INIGOES     CLEAR     81  72  74 S6        29.85F
LEONARDTOWN*   CLEAR     79  70  73 CALM      29.87F

$$

MDZ003>005-040400-
NORTH CENTRAL MARYLAND

CITY           SKY/WX    TMP DP  RH WIND       PRES   REMARKS
FREDERICK*     PTCLDY    72  66  83 CALM      29.84S
HAGERSTOWN APT MOCLDY    81  64  56 CALM      29.84R
WESTMINSTER*   MOCLDY    79  63  57 S6        29.85S

$$

MDZ501>502-040400-
WESTERN MARYLAND

CITY           SKY/WX    TMP DP  RH WIND       PRES   REMARKS
OAKLAND*       MOCLDY    68 N/A N/A SW8       29.96S
CUMBERLAND*    MOCLDY    79  59  50 SW7       29.88S

$$

VAZ025>031-040400-
SHENANDOAH VALLEY

CITY           SKY/WX    TMP DP  RH WIND       PRES   REMARKS
WINCHESTER*    MOCLDY    79  64  61 SW6       29.84S
FRONT ROYAL*   FAIR      77  63  61 SW5       29.85R
LURAY*         FAIR      79  63  57 SW7       29.87S
NEW MARKET*    FAIR      76  63  62 W6        29.86S
STAUNTON*      PTCLDY    74  62  66 SW6       29.93S
WAYNESBORO*    FAIR      73  60  63 SW6       29.93S

$$

WVZ021-048>050-054>055-040400-
EASTERN WEST VIRGINIA PANHANDLE

CITY           SKY/WX    TMP DP  RH WIND       PRES   REMARKS
MARTINSBURG    PTCLDY    74  65  73 CALM      29.84R
PETERSBURG*    PTCLDY    67  62  82 CALM      29.89R

$$

VAZ036>039-050-040400-
CENTRAL FOOTHILLS

CITY           SKY/WX    TMP DP  RH WIND       PRES   REMARKS
CHARLOTTESVILL CLEAR     75  64  68 S5        29.88S
CULPEPER*      CLEAR     73  64  75 SW3       29.86S
ORANGE*        CLEAR     72  66  83 CALM      29.88F
GORDONSVILLE*  FAIR      68  66  94 CALM      29.86F
WARRENTON*     FAIR      77  66  69 SW5       29.84F

$$

VAZ055>057-040400-
NORTH AND CENTRAL PIEDMONT

CITY           SKY/WX    TMP DP  RH WIND       PRES   REMARKS
FREDERICKSBRG* CLEAR     81  69  67 SW7       29.84F
STAFFORD*      CLEAR     70  66  88 CALM      29.89S

$$

NCZ024-NYZ072-PAZ021-071-VAZ022-071-040400-
OTHER REGIONAL OBSERVATIONS

CITY           SKY/WX    TMP DP  RH WIND       PRES   REMARKS
NEW YORK CITY  CLEAR     82  59  45 MISG      29.84S
PHILADELPHIA   PTCLDY    81  67  62 SW7       29.83S
PITTSBURGH     MOCLDY    67  63  87 CALM      29.86F
ROANOKE        PTCLDY    78  60  53 W8        29.96R
RICHMOND       PTCLDY    79  71  76 S8        29.88S
RALEIGH        PTCLDY    82  68  62 SW14      29.95R

$$

ANZ530>537-040400-
MARINE OBSERVATIONS

STATION/POSITION TIME  TEMP    WIND        PRES
                       AIR SEA DIR/SP/G
                 (UTC) (F)     (DEG/KT/KT) (MB)
THOMAS PT LIGHT  0200   83     200/ 13       N/A
BALT KEY BRIDGE  0200   83     180/ 10/ 12 1009.8R
COVE POINT       0200   82     220/ 10/ 11 1011.6R
LEWISETTA        0200   81 85  220/  8/  9 1011.2R
SOLOMONS ISLAND  0200      84                N/A
PINEY POINT      0200          230/ 10/ 11   N/A

$$




USA.gov is the U.S. government's official web portal to all federal, state and local government web resources and services.